Погода в Сетовном

Россия / Курганская область     55°04′48″N   67°04′13″E
темп.,
°C
ветер,
м/с
пор.,
м/с
влажн.,
%
обл.,
%
осадки,
мм/ч
давл.,
гПа
погр.,
м
27 января, чт
чт2723:00−17ююз3889100 0.0 102992
02:00−15ююз4992100 0.0 1028133
05:00−15ююз41183100 0.0 1028186
08:00−15ююз51188100 0.0 1028186
11:00−12ююз51193100 0.0 1028266
14:00−9ююз51193100 0.0 1027338
17:00−8ююз41094100 0.0 1027272
20:00−10ююз389699 0.0 1027132
28 января, пт
пт2823:00−13ююз3698100 0.0 102771
02:00−15юз3510096 0.0 102759
05:00−15юз22100100 0.0 102721
08:00−15ююз2299100 0.0 102829
11:00−10ююз2296100 0.1 102771
14:00−7ю1293100 0.0 1026135
17:00−8ююв119794 0.3 102613
20:00−13юв229987 0.1 102610
29 января, сб
сб2923:00−16юв229998 0.1 102617
02:00−16вюв229780 0.0 102616
05:00−15в2395100 0.0 102554
08:00−15в3593100 0.0 102581
11:00−12в3890100 0.0 1024171
14:00−10в388699 0.0 1023212
17:00−15в3791100 0.0 102372
20:00−14в41189100 0.0 1022170
30 января, вс
вс3023:00−15вюв3888100 0.0 1021157
02:00−16вюв3790100 0.0 1020118
05:00−16вюв3690100 0.0 101887
08:00−15юв3492100 0.0 101877
11:00−12ю3594100 0.0 1017161
14:00−12юз3791100 0.0 1017246
17:00−16ююз379577 0.0 101885
20:00−18ююз379310 0.0 1019101
31 января, пн
пн3123:00−17ююз38965 0.0 1019113
02:00−15ююз499748 0.0 1019127
05:00−13ю4109775 0.0 1019159
08:00−11ююз41196100 0.0 1019201
11:00−7ююз5139598 0.1 1020343
14:00−3юз71187100 0.1 1019645
17:00−5юз61293100 0.1 1021483
20:00−4ююз61194100 0.1 1022588